FW9819 Weather Reports


time (UTC)temp
C
wind
direction
speed
KPH
gust
KPH
rain 1hr
cm
rain 24hr
cm
rain mn
cm
humidity
%
barometer
mb
20260506044549 15 185 0.0 3.2 0.00 0.00 0.00 75 1015.2
20260506043005 15 226 0.0 3.2 0.00 0.00 0.00 73 1015.0
20260506041600 16 226 0.0 1.6 0.00 0.00 0.00 71 1014.8
20260506040031 16 226 0.0 6.4 0.00 0.00 0.00 70 1014.6
20260506034538 17 263 0.0 3.2 0.00 0.00 0.00 68 1014.4
20260506033104 17 192 1.6 4.8 0.00 0.00 0.00 66 1014.2
20260506033007 17 109 1.6 4.8 0.00 0.00 0.00 66 1014.2
20260506031545 18 181 0.0 4.8 0.00 0.00 0.00 65 1014.1
20260506030028 19 262 1.6 4.8 0.00 0.00 0.00 62 1013.7
20260506024517 20 306 0.0 4.8 0.00 0.00 0.00 59 1013.5
20260506023111 21 60 0.0 3.2 0.00 0.00 0.00 57 1013.3
20260506021537 22 69 0.0 3.2 0.00 0.00 0.00 56 1013.2
20260506020023 23 81 0.0 6.4 0.00 0.00 0.00 54 1013.1
20260506014502 23 252 0.0 6.4 0.00 0.00 0.00 51 1013.0
20260506013043 25 301 3.2 8.0 0.00 0.00 0.00 49 1013.0
20260506011523 25 319 0.0 6.4 0.00 0.00 0.00 47 1013.1
20260506010013 26 271 1.6 9.7 0.00 0.00 0.00 46 1013.0
20260506004621 26 360 1.6 4.8 0.00 0.00 0.00 45 1013.0
20260506003043 26 262 3.2 8.0 0.00 0.00 0.00 44 1013.0
20260506001525 27 282 1.6 6.4 0.00 0.00 0.00 45 1012.9
20260506000011 27 127 1.6 8.0 0.00 0.00 0.00 44 1012.9
20260505234625 27 291 1.6 9.7 0.00 0.00 0.00 45 1013.0
20260505233038 27 309 1.6 12.9 0.00 0.00 0.00 44 1013.1
20260505231517 27 314 3.2 9.7 0.00 0.00 0.00 44 1013.2
20260505230006 27 123 1.6 8.0 0.00 0.00 0.00 43 1013.2
20260505224543 27 355 1.6 6.4 0.00 0.00 0.00 44 1013.3
20260505223030 27 171 1.6 8.0 0.00 0.00 0.00 44 1013.5
20260505221507 26 288 3.2 8.0 0.00 0.00 0.00 43 1013.5
20260505214538 26 195 1.6 6.4 0.00 0.00 0.00 44 1013.7
20260505213012 26 321 0.0 14.5 0.00 0.00 0.00 47 1013.8
20260505211506 25 15 1.6 12.9 0.00 0.00 0.00 49 1013.9
20260505210037 25 234 1.6 12.9 0.00 0.00 0.00 47 1014.0
20260505204506 25 265 1.6 8.0 0.00 0.00 0.00 48 1014.1
20260505203037 25 189 0.0 11.3 0.00 0.00 0.00 49 1014.1
20260505201525 25 172 3.2 8.0 0.00 0.00 0.00 47 1014.2
20260505194527 24 284 1.6 4.8 0.00 0.00 0.00 50 1014.5
20260505193056 23 157 1.6 8.0 0.00 0.00 0.00 52 1014.6
20260505191541 23 171 1.6 14.5 0.00 0.00 0.00 52 1014.7
20260505190012 23 135 1.6 6.4 0.00 0.00 0.00 53 1014.7
20260505184558 23 171 1.6 9.7 0.00 0.00 0.00 54 1014.7
20260505183030 22 156 1.6 8.0 0.00 0.00 0.00 56 1014.8
20260505181511 22 252 1.6 8.0 0.00 0.00 0.00 58 1014.9
20260505180053 21 321 1.6 6.4 0.00 0.00 0.00 60 1015.0
20260505174537 21 185 3.2 9.7 0.00 0.00 0.00 59 1015.0
20260505173006 21 243 1.6 4.8 0.00 0.00 0.00 59 1015.0
20260505171544 20 196 1.6 6.4 0.00 0.00 0.00 61 1015.0
20260505170028 20 178 1.6 6.4 0.00 0.00 0.00 63 1015.0
20260505164558 19 145 1.6 9.7 0.00 0.00 0.00 64 1015.0
20260505163040 18 309 1.6 4.8 0.00 0.00 0.00 66 1015.0
20260505161512 18 275 1.6 12.9 0.00 0.00 0.00 68 1015.1
20260505153007 15 176 0.0 3.2 0.00 0.00 0.00 77 1014.9
20260505151548 14 176 0.0 3.2 0.00 0.00 0.00 81 1014.9
20260505124519 12 176 0.0 3.2 0.00 0.00 0.00 85 1013.6
20260505123114 12 177 0.0 3.2 0.00 0.00 0.00 85 1013.4
20260505123000 12 177 0.0 3.2 0.00 0.00 0.00 84 1013.4
20260505121541 12 165 0.0 3.2 0.00 0.00 0.00 84 1013.3
20260505120028 12 165 0.0 3.2 0.00 0.00 0.00 83 1013.2
20260505114613 12 165 0.0 3.2 0.00 0.00 0.00 83 1013.1
20260505113040 13 165 0.0 3.2 0.00 0.00 0.00 83 1013.1
20260505111533 13 165 0.0 3.2 0.00 0.00 0.00 82 1013.0
20260505101602 14 134 0.0 6.4 0.00 0.00 0.00 81 1012.5
20260505101503 14 134 0.0 6.4 0.00 0.00 0.00 81 1012.4
20260505100043 14 144 0.0 4.8 0.00 0.00 0.00 81 1012.4
20260505094522 15 325 0.0 3.2 0.00 0.00 0.00 79 1012.2
20260505093100 15 216 0.0 3.2 0.00 0.00 0.00 79 1012.3
20260505093009 15 216 0.0 3.2 0.00 0.00 0.00 79 1012.2
20260505091545 15 207 0.0 3.2 0.00 0.00 0.00 79 1012.2
20260505090034 15 275 0.0 6.4 0.00 0.00 0.00 79 1012.1
20260505084518 15 336 0.0 6.4 0.00 0.00 0.00 80 1012.0
20260505083108 15 130 1.6 3.2 0.00 0.00 0.00 79 1012.0
20260505081537 15 130 0.0 3.2 0.00 0.00 0.00 79 1011.9
20260505080116 15 130 0.0 3.2 0.00 0.00 0.00 78 1011.9
20260505074524 15 56 0.0 3.2 0.00 0.00 0.00 77 1011.9
20260505073006 16 56 0.0 3.2 0.00 0.00 0.00 75 1011.9
20260505071544 16 56 0.0 3.2 0.00 0.00 0.00 75 1011.8
20260505070028 16 55 0.0 3.2 0.00 0.00 0.00 74 1011.6
20260505064604 16 55 1.6 3.2 0.00 0.00 0.00 73 1011.5
20260505064501 16 55 0.0 3.2 0.00 0.00 0.00 73 1011.5
20260505063049 17 43 0.0 3.2 0.00 0.00 0.00 72 1011.4
20260505061537 17 43 0.0 3.2 0.00 0.00 0.00 70 1011.5